Station SJNP4 - 9755371 - San Juan, La Puntilla, San Juan Bay, PR Image indicating link to RSS feed of recent meteorological observations for station SJNP4


Conditions at SJNP4 as of
(1:00 am AST)
0500 GMT on 05/20/2024:
     

Click on the graph icon in the table below to see a time series plot of the last five days of that observation.

5-day plot - Atmospheric Pressure Atmospheric Pressure (PRES):29.98 in
5-day plot - Pressure Tendency Pressure Tendency (PTDY):-0.02 in ( Falling )
5-day plot - Air Temperature Air Temperature (ATMP): 82.8 °F
5-day plot - Water Temperature Water Temperature (WTMP): 84.9 °F
NOS Water Level Observation Network Water Level
Previous observations
TIME
(AST)
5-day plot - Wind Direction
WDIR
 
5-day plot - Wind Speed
WSPD
kts
5-day plot - Wind Gust
GST
kts
5-day plot - Wave Height
WVHT
ft
5-day plot - Dominant Wave Period
DPD
sec
5-day plot - Average Wave Period
APD
sec
5-day plot - Mean Wave Direction
MWD
 
5-day plot - Atmospheric Pressure
PRES
in
5-day plot - Pressure Tendency
PTDY
in
5-day plot - Air Temperature
ATMP
°F
5-day plot - Water Temperature
WTMP
°F
5-day plot - Dew Point
DEWP
°F
5-day plot - Salinity
SAL
psu
5-day plot - Visibility
VIS
nmi
5-day plot - Tide (above MLLW)
TIDE
ft
2024-05-20 12:54 am-------29.98- 82.9 84.7----
2024-05-20 12:48 am-------29.98- 83.1 84.7----
2024-05-20 12:42 am-------29.98- 83.1 84.7----
2024-05-20 12:36 am-------29.99- 83.1 84.7----
2024-05-20 12:30 am-------29.99- 83.1 84.7----
2024-05-20 12:24 am-------29.99- 83.1 84.9----
2024-05-20 12:18 am-------30.00- 83.1 84.9----
2024-05-20 12:12 am-------30.00- 83.1 84.9----
2024-05-20 12:06 am-------30.00- 83.3 85.5----
2024-05-20 12:00 am-------30.00+0.01 83.3 85.5----
2024-05-19 11:54 pm-------30.00- 83.3 85.5----
2024-05-19 11:48 pm-------30.00- 83.5 85.5----
2024-05-19 11:42 pm-------30.00- 83.7 85.5----
2024-05-19 11:36 pm-------30.00- 83.8 85.5----
2024-05-19 11:30 pm-------30.01- 83.8 85.5----
2024-05-19 11:24 pm-------30.01- 84.0 85.5----
2024-05-19 11:18 pm-------30.01-- 85.5----
2024-05-19 11:12 pm-------30.01-- 85.5----
2024-05-19 11:06 pm-------30.01-- 85.5----
2024-05-19 11:00 pm-------30.01+0.04 84.0 85.5----
2024-05-19 10:54 pm-------30.00- 84.2 85.5----
2024-05-19 10:48 pm-------30.01- 84.0 85.5----
2024-05-19 10:42 pm-------30.00- 83.8 85.5----
2024-05-19 10:36 pm-------30.01- 84.0 85.5----
2024-05-19 10:30 pm-------30.00- 83.8 85.5----
2024-05-19 10:24 pm-------30.00- 84.0 85.5----
2024-05-19 10:18 pm-------30.00- 84.0 85.5----
2024-05-19 10:12 pm-------30.00- 84.2 85.5----
2024-05-19 10:06 pm-------30.00- 84.2 85.5----
2024-05-19 10:00 pm-------30.00- 84.4 85.5----
2024-05-19 09:54 pm-------30.00- 84.4 85.5----
2024-05-19 09:48 pm-------29.99- 84.4 85.5----
2024-05-19 09:42 pm-------29.99- 84.6 85.5----
2024-05-19 09:36 pm-------29.99- 84.6 85.5----
2024-05-19 09:30 pm-------29.99-- 85.5----
2024-05-19 09:24 pm-------29.99-- 85.5----
2024-05-19 09:18 pm-------29.99-- 85.5----
2024-05-19 09:12 pm-------29.99-- 85.5----
2024-05-19 09:06 pm-------29.98-- 85.5----
2024-05-19 09:00 pm-------29.98+0.06- 85.6----
2024-05-19 08:54 pm-------29.98-- 85.6----
2024-05-19 08:48 pm-------29.98- 85.1 85.6----
2024-05-19 08:42 pm-------29.98- 85.1 85.6----
2024-05-19 08:36 pm-------29.98- 85.3 85.6----
2024-05-19 08:30 pm-------29.98- 85.5 85.6----
2024-05-19 08:24 pm-------29.98- 85.3 85.6----
2024-05-19 08:18 pm---------- 85.6----
2024-05-19 08:12 pm---------- 85.6----
2024-05-19 08:06 pm---------- 85.6----
2024-05-19 08:00 pm-------29.97+0.06- 85.6----
2024-05-19 07:54 pm-------29.97-- 85.6----
2024-05-19 07:48 pm-------29.96-- 85.6----
2024-05-19 07:42 pm-------29.96-- 85.6----
2024-05-19 07:36 pm-------29.96-- 85.6----
2024-05-19 07:30 pm-------29.96- 86.2 85.6----
2024-05-19 07:24 pm-------29.96- 86.4 85.6----
2024-05-19 07:18 pm-------29.95- 86.4 85.6----
2024-05-19 07:12 pm-------29.95- 86.4 85.6----
2024-05-19 07:06 pm-------29.95- 86.4 85.6----
2024-05-19 07:00 pm---------- 85.6----
2024-05-19 06:54 pm---------- 85.8----
2024-05-19 06:48 pm-------29.94-- 85.8----
2024-05-19 06:42 pm-------29.94-- 85.8----
2024-05-19 06:36 pm-------29.94-- 85.8----
2024-05-19 06:30 pm-------29.93-- 85.8----
2024-05-19 06:24 pm-------29.93-- 85.8----
2024-05-19 06:18 pm-------29.93- 87.3 85.8----
2024-05-19 06:12 pm-------29.93- 87.4 85.8----
2024-05-19 06:06 pm-------29.93- 87.6 85.8----
2024-05-19 06:00 pm-------29.93-0.01 87.6 85.8----
2024-05-19 05:54 pm-------29.93- 87.8 85.8----
2024-05-19 05:48 pm-------29.92- 87.6 85.8----
2024-05-19 05:42 pm-------29.92- 87.8 85.8----
2024-05-19 05:36 pm-------29.92- 87.8 85.8----
2024-05-19 05:30 pm-------29.92- 88.3 85.8----
2024-05-19 05:24 pm-------29.92- 88.3 85.8----
2024-05-19 05:18 pm-------29.91- 88.3 85.8----
2024-05-19 05:12 pm-------29.91- 88.3 85.8----
2024-05-19 05:06 pm-------29.92- 88.3 85.8----
2024-05-19 05:00 pm-------29.91-0.04 88.5 85.8----
2024-05-19 04:54 pm-------29.91- 88.5 85.8----
2024-05-19 04:48 pm-------29.91- 88.3 85.8----
2024-05-19 04:42 pm-------29.91- 88.3 85.8----
2024-05-19 04:36 pm-------29.91- 88.3 85.8----
2024-05-19 04:30 pm-------29.91- 88.2 85.8----
2024-05-19 04:24 pm-------29.91- 88.3 85.8----
2024-05-19 04:18 pm-------29.91- 88.7 85.8----
2024-05-19 04:12 pm-------29.91- 88.3 85.8----
2024-05-19 04:06 pm-------29.91- 87.1 85.8----
2024-05-19 04:00 pm-------29.91-0.07- 85.8----
2024-05-19 03:54 pm-------29.91-- 85.8----
2024-05-19 03:48 pm-------29.92-- 85.8----
2024-05-19 03:42 pm-------29.92-- 85.8----
2024-05-19 03:36 pm-------29.92-- 85.8----
2024-05-19 03:30 pm-------29.93- 86.0 85.8----
2024-05-19 03:24 pm-------29.93- 86.4 85.8----
2024-05-19 03:18 pm-------29.93- 86.4 85.8----
2024-05-19 03:12 pm-------29.93- 85.8 85.8----
2024-05-19 03:06 pm-------29.93- 85.1 85.8----
2024-05-19 03:00 pm-------29.93-0.07- 85.8----
2024-05-19 02:54 pm-------29.94-- 85.8----
2024-05-19 02:48 pm-------29.94- 84.9 85.8----
2024-05-19 02:42 pm-------29.94- 84.9 85.8----
2024-05-19 02:36 pm-------29.94- 84.9 85.8----
2024-05-19 02:30 pm-------29.94- 84.9 85.8----
2024-05-19 02:24 pm-------29.94- 85.1 85.8----
2024-05-19 02:18 pm-------29.94- 85.1 85.8----
2024-05-19 02:12 pm-------29.95- 85.5 85.8----
2024-05-19 02:06 pm-------29.95- 85.3 85.8----
2024-05-19 02:00 pm-------29.95-0.08 85.1 85.8----
2024-05-19 01:54 pm-------29.96- 85.3 85.8----
2024-05-19 01:48 pm-------29.96- 85.3 85.6----
2024-05-19 01:42 pm-------29.96- 85.3 85.6----
2024-05-19 01:36 pm-------29.97- 85.3 85.6----
2024-05-19 01:30 pm-------29.97- 85.6 85.6----
2024-05-19 01:24 pm-------29.97- 86.0 85.6----
2024-05-19 01:18 pm-------29.98-- 85.6----
2024-05-19 01:12 pm-------29.98-- 85.6----
2024-05-19 01:06 pm-------29.98-- 85.6----
2024-05-19 01:00 pm-------29.98-0.04- 85.6----
2024-05-19 12:54 pm-------29.99-- 85.6----
2024-05-19 12:48 pm-------29.99- 85.1 85.6----
2024-05-19 12:42 pm-------29.99- 84.7 85.6----
2024-05-19 12:36 pm-------30.00- 84.9 85.5----
2024-05-19 12:30 pm-------30.00- 84.7 85.5----
2024-05-19 12:24 pm-------30.00- 84.7 85.5----
2024-05-19 12:18 pm-------30.00- 84.6 85.5----
2024-05-19 12:12 pm-------30.00- 84.6 85.5----
2024-05-19 12:06 pm-------30.01- 84.6 85.5----
2024-05-19 12:00 pm-------30.01-0.01 84.6 85.5----
2024-05-19 11:54 am-------30.01- 84.6 85.5----
2024-05-19 11:48 am-------30.01- 84.6 85.3----
2024-05-19 11:42 am-------30.01- 84.6 85.3----
2024-05-19 11:36 am-------30.02- 84.7 85.3----
2024-05-19 11:30 am-------30.01- 84.7 85.3----
2024-05-19 11:24 am-------30.01- 85.8 85.1----
2024-05-19 11:18 am-------30.02- 85.3 85.1----
2024-05-19 11:12 am-------30.02- 85.6 85.1----
2024-05-19 11:06 am-------30.03- 85.6 85.1----
2024-05-19 11:00 am-------30.03+0.01 85.8 85.3----
2024-05-19 10:54 am-------30.03- 85.5 85.1----
2024-05-19 10:48 am-------30.03- 85.5 85.1----
2024-05-19 10:42 am-------30.03- 84.9 85.1----
2024-05-19 10:36 am-------30.03- 84.7 85.1----
2024-05-19 10:30 am-------30.03- 85.5 85.1----
2024-05-19 10:24 am-------30.03- 85.1 85.1----
2024-05-19 10:18 am-------30.03- 84.6 85.1----
2024-05-19 10:12 am-------30.03- 84.6 85.1----
2024-05-19 10:06 am-------30.03- 84.4 84.9----
2024-05-19 10:00 am-------30.03+0.02- 84.9----
2024-05-19 09:54 am-------30.03-- 84.9----
2024-05-19 09:48 am-------30.03- 84.6 84.9----
2024-05-19 09:42 am-------30.02- 84.2 84.9----
2024-05-19 09:36 am-------30.02- 84.6 84.9----
2024-05-19 09:30 am-------30.02-- 84.9----
2024-05-19 09:24 am-------30.02-- 84.9----
2024-05-19 09:18 am-------30.02-- 84.9----
2024-05-19 09:12 am-------30.02-- 84.9----
2024-05-19 09:06 am-------30.02-- 84.9----
2024-05-19 09:00 am-------30.02+0.02- 84.9----
2024-05-19 08:54 am-------30.01-- 84.9----
2024-05-19 08:48 am-------30.02- 84.7 84.9----
2024-05-19 08:42 am-------30.02- 84.7 84.9----
2024-05-19 08:36 am-------30.02- 84.4 84.9----
2024-05-19 08:30 am-------30.02- 84.7-----
2024-05-19 08:24 am-------30.01- 84.4-----
2024-05-19 08:18 am-------30.01-- 84.9----
2024-05-19 08:12 am-------30.01-- 84.9----
2024-05-19 08:06 am-------30.01-- 84.9----
2024-05-19 08:00 am-------30.01+0.03 84.2 84.9----
2024-05-19 07:54 am-------30.01- 83.8 84.7----
2024-05-19 07:48 am-------30.01- 83.7 84.7----
2024-05-19 07:42 am-------30.01- 83.5 84.7----
2024-05-19 07:36 am-------30.01- 82.9 84.7----
2024-05-19 07:30 am-------30.01- 83.1 84.7----
2024-05-19 07:24 am-------30.01- 82.9 84.7----
2024-05-19 07:18 am-------30.01- 82.9 84.7----
2024-05-19 07:12 am-------30.01- 82.9 84.7----
2024-05-19 07:06 am-------30.01- 82.8 84.7----
2024-05-19 07:00 am-------30.01+0.03------
2024-05-19 06:54 am-------30.01-------
2024-05-19 06:48 am-------30.01-- 84.7----
2024-05-19 06:42 am-------30.01-- 84.7----
2024-05-19 06:36 am-------30.01-- 84.7----
2024-05-19 06:30 am-------30.00- 82.4 84.7----
2024-05-19 06:24 am-------30.00- 82.0 84.7----
2024-05-19 06:18 am-------30.00-- 84.7----
2024-05-19 06:12 am-------30.00-- 84.7----
2024-05-19 06:06 am-------30.00-- 84.7----
2024-05-19 06:00 am-------29.99+0.02------
2024-05-19 05:54 am-------29.99-------
2024-05-19 05:48 am-------29.99- 81.9 84.7----
2024-05-19 05:42 am-------29.99- 81.9 84.7----
2024-05-19 05:36 am-------29.98- 82.0 84.7----
2024-05-19 05:30 am-------29.99- 81.9 84.7----
2024-05-19 05:24 am-------29.99- 81.9 84.7----
2024-05-19 05:18 am-------29.98- 81.9 84.7----
2024-05-19 05:12 am-------29.98- 81.9 84.7----
2024-05-19 05:06 am-------29.98- 81.9 84.7----
2024-05-19 05:00 am-------29.98+0.00 81.9 84.7----
2024-05-19 04:54 am-------29.98- 82.2 84.6----
2024-05-19 04:48 am-------29.98- 82.2 84.7----
2024-05-19 04:42 am-------29.98- 82.0 84.7----
2024-05-19 04:36 am-------29.98- 82.2 84.7----
2024-05-19 04:30 am-------29.98- 82.0 84.7----
2024-05-19 04:24 am-------29.98- 82.2 84.7----
2024-05-19 04:18 am-------29.98- 81.9 84.7----
2024-05-19 04:12 am-------29.98- 82.0 84.7----
2024-05-19 04:06 am-------29.98- 82.0 84.7----
2024-05-19 04:00 am-------29.98-0.03 82.0 84.7----
2024-05-19 03:54 am-------29.98- 82.2 84.7----
2024-05-19 03:48 am-------29.98- 82.0 84.7----
2024-05-19 03:42 am-------29.98- 82.0 84.7----
2024-05-19 03:36 am-------29.98- 82.0 84.7----
2024-05-19 03:30 am-------29.98- 82.0 84.7----
2024-05-19 03:24 am-------29.98- 82.2 84.7----
2024-05-19 03:18 am-------29.98- 82.0 84.7----
2024-05-19 03:12 am-------29.97- 82.4 84.7----
2024-05-19 03:06 am-------29.97- 82.2 84.9----
2024-05-19 03:00 am-------29.97-0.06 82.0 84.9----
2024-05-19 02:54 am-------29.98- 82.0 84.9----
2024-05-19 02:48 am-------29.97- 82.0 84.9----
2024-05-19 02:42 am-------29.97- 82.0 84.9----
2024-05-19 02:36 am-------29.98- 82.0 84.9----
2024-05-19 02:30 am-------29.98- 82.0 84.9----
2024-05-19 02:24 am-------29.98- 82.0 84.9----
2024-05-19 02:18 am-------29.98- 82.2 84.9----
2024-05-19 02:12 am-------29.98- 82.2 84.9----
2024-05-19 02:06 am-------29.99- 82.2 84.9----
2024-05-19 02:00 am-------29.99-0.06 82.2 84.9----
2024-05-19 01:54 am-------29.99- 82.4 84.9----
2024-05-19 01:48 am-------29.99- 82.2 84.9----
2024-05-19 01:42 am-------29.99- 82.6 84.9----
2024-05-19 01:36 am-------29.99- 82.4 84.9----
2024-05-19 01:30 am-------29.99- 82.4 84.9----
2024-05-19 01:24 am-------30.00- 82.9 84.9----
2024-05-19 01:18 am-------30.00- 82.6 84.9----
2024-05-19 01:12 am-------30.01- 82.9 84.9----
2024-05-19 01:06 am-------30.01- 82.8 84.9----
2024-05-19 01:00 am-------30.01-0.03 82.8 84.9----
2024-05-19 12:54 am-------30.01- 82.8 85.1----